RH
100 98 93 94 92 78 60 61 63 66 57 49 46 43 40 28 22 19 17 17 18 19 20 20 18 20 24 23 22 17 17 17 19 20 22 24 23 26 27 27 27 31 27 28 27 34 35
96 84 78 82 82 73 64 58 54 52 55 53 44 41 39 38 30 20 19 18 18 18 18 17 20 22 29 31 18 18 17 18 19 19 22 24 23 26 25 26 28 28 30 30 31 33 36
83 75 70 78 78 77 59 59 56 52 49 50 51 43 39 40 36 33 21 18 17 18 17 20 22 22 23 26 18 19 18 20 18 19 23 24 25 26 27 28 27 26 27 28 31 32 37
76 58 62 65 89 65 58 55 54 50 48 45 45 46 43 39 39 36 30 18 19 20 17 20 24 24 28 20 19 20 19 21 22 20 18 20 24 28 28 27 32 29 29 28 27 41 36
51 54 62 84 92 69 62 56 52 48 47 44 41 41 43 40 37 32 29 33 33 32 20 20 24 26 28 20 19 20 21 20 21 23 23 23 27 33 31 34 32 31 30 30 29 40 37
70 76 84 93 96 77 66 58 51 47 46 43 39 36 39 40 35 25 31 28 27 23 23 26 22 21 21 22 21 22 22 20 22 26 31 28 43 37 42 36 35 27 28 29 30 28 39
100 100 100 100 100 86 66 56 50 49 49 47 41 35 33 40 36 25 32 28 33 34 29 24 24 22 26 24 23 24 22 22 26 27 34 36 39 41 33 37 27 24 28 30 31 29 36
100 100 100 100 100 80 63 58 56 55 53 50 46 38 31 39 38 28 27 44 48 46 37 33 34 28 24 23 26 28 24 26 30 34 36 39 45 35 32 37 30 30 33 37 36 34 39
99 99 99 99 99 81 72 69 64 60 55 51 48 42 32 36 36 31 33 47 50 56 42 33 33 29 27 26 28 30 29 28 30 34 42 40 30 34 29 32 33 34 38 37 35 40 42
97 97 98 97 94 89 75 71 66 62 57 53 49 45 36 30 35 37 40 44 49 54 49 35 34 30 29 28 30 29 26 26 31 33 39 42 35 32 31 34 35 39 37 35 37 43 48
94 96 90 93 100 95 82 74 70 64 59 53 48 47 42 39 45 42 50 50 55 49 52 29 37 30 33 34 34 34 27 26 31 36 35 36 41 39 40 39 36 39 37 39 41 47 59
84 86 86 90 100 95 81 76 71 65 60 54 48 47 46 45 49 53 56 60 59 46 51 34 40 39 40 40 37 38 32 30 32 35 38 40 36 37 37 37 34 45 51 62 74 67 78
80 80 82 84 97 90 82 74 72 65 61 55 48 46 49 57 54 57 61 60 53 57 30 34 40 44 41 42 43 46 45 45 46 40 49 42 47 38 34 38 36 41 51 66 64 80 71
76 76 78 82 87 91 88 71 67 63 59 56 48 46 54 67 66 58 62 56 50 35 36 41 40 44 44 44 44 47 48 54 50 41 54 51 57 51 42 41 48 53 53 68 64 71 54
96 98 99 98 98 99 95 67 57 55 55 54 49 50 59 71 62 61 61 66 36 44 34 44 40 48 47 47 45 46 55 57 47 50 48 61 56 46 39 38 40 53 59 49 56 70 79
99 98 99 98 98 98 97 95 81 35 38 54 61 71 60 65 64 56 66 68 50 43 44 39 48 48 54 46 47 50 50 45 45 52 40 42 55 46 42 36 40 50 49 60 70 69 82
99 98 98 97 96 95 95 95 93 74 28 53 79 85 62 66 62 70 77 74 56 48 46 46 49 51 53 47 57 57 44 40 44 49 47 49 55 51 43 51 56 55 59 57 62 72 67
92 92 94 96 92 90 91 92 93 92 56 47 85 80 59 66 78 89 76 58 53 52 44 49 48 55 56 54 57 66 59 41 46 50 53 51 63 65 61 49 47 48 54 54 61 64 90
89 89 88 90 91 92 92 93 92 88 90 99 95 84 70 68 88 88 74 64 63 57 56 49 51 55 53 57 62 63 60 49 50 49 52 54 65 75 65 64 65 61 61 55 60 82 63
98 97 98 96 96 97 93 93 92 82 69 81 92 97 89 92 88 77 85 78 80 64 66 58 56 52 58 64 63 62 59 51 52 49 48 50 65 66 52 48 69 76 69 63 54 72 74
92 92 92 92 92 93 94 91 92 80 56 97 90 81 93 97 92 83 86 87 88 84 78 72 72 92 100 99 85 76 65 63 54 50 52 57 91 82 79 74 70 66 63 60 66 60 74
84 83 79 82 87 90 90 91 92 91 38 75 99 98 90 82 77 70 70 85 91 90 77 82 92 79 73 99 99 100 100 97 97 74 75 78 97 94 96 87 78 80 72 71 69 67 68
81 80 79 77 76 83 85 86 87 88 76 85 81 81 87 84 93 92 80 84 75 59 61 64 56 70 71 65 85 70 71 77 91 95 96 88 98 98 96 76 81 98 90 79 77 66 65
81 80 79 77 75 80 82 84 84 85 86 78 82 87 78 89 89 86 82 76 75 68 73 56 52 64 62 49 58 67 73 73 82 75 74 90 98 99 97 91 96 80 84 83 92 91 86
83 81 80 79 77 72 75 77 82 82 87 76 73 79 80 83 76 75 88 85 73 82 63 62 66 44 55 58 81 80 60 58 84 86 86 87 93 97 97 94 85 97 90 91 92 95 93
82 87 86 82 81 81 79 79 79 77 81 69 66 67 79 94 82 77 85 82 84 90 89 66 55 61 61 64 81 100 84 65 73 78 58 58 80 94 94 95 96 93 90 90 94 96 93
96 98 97 98 80 76 78 80 80 74 92 96 78 71 76 91 77 77 84 81 79 87 88 81 84 74 60 82 98 97 93 86 94 95 70 90 84 90 93 96 96 92 93 92 95 95 93
92 98 97 96 99 93 77 78 85 82 80 84 99 97 90 98 82 73 71 84 86 78 87 78 84 72 80 90 98 99 92 96 93 70 85 94 100 98 90 88 93 90 79 88 95 94 95
91 94 95 99 98 97 99 96 89 87 79 78 96 97 96 97 90 66 66 70 72 69 79 84 86 89 82 91 90 96 95 95 91 95 75 91 98 96 96 96 95 95 95 95 95 95 94
Wind_Speed
23 24 24 24 24 26 27 28 28 26 22 17 14 11 9 7 6 6 5 4 3 3 4 5 8 9 3 1 7 3 2 2 3 4 5 4 4 4 3 4 3 4 3 3 3 4 4
21 22 23 24 24 24 25 27 28 28 27 24 19 15 11 9 8 7 6 5 5 5 5 6 8 7 1 3 3 2 1 2 2 4 3 5 5 5 3 3 4 4 3 4 4 3 3
20 21 22 23 24 24 25 25 26 28 28 27 25 19 14 12 10 9 8 6 7 6 5 5 5 3 2 10 4 2 1 3 2 2 3 3 4 3 4 2 0 1 4 4 5 4 4
20 20 21 22 23 23 24 25 26 27 28 29 28 25 17 13 9 6 7 8 7 7 7 5 4 1 6 3 4 4 1 3 2 2 3 4 3 4 1 2 4 2 2 3 2 5 2
19 20 21 22 23 24 25 25 26 27 28 29 28 27 22 16 7 7 9 9 8 8 7 6 3 3 7 2 4 6 4 4 3 3 3 4 3 3 3 3 4 4 3 4 6 6 2
19 20 21 22 23 25 26 26 27 28 29 30 29 28 24 16 7 12 7 4 3 3 2 2 0 2 3 4 4 4 4 5 3 4 2 3 4 2 2 3 5 4 4 4 5 3 3
19 21 22 22 24 25 26 27 28 29 30 31 31 30 25 18 7 11 4 0 4 2 2 8 5 3 1 3 4 3 4 5 3 2 4 1 2 8 10 8 2 2 3 5 4 3 3
19 21 22 23 25 25 26 27 28 30 31 32 32 31 26 18 6 9 4 5 2 1 7 5 4 5 4 2 1 4 6 5 4 5 4 2 8 5 3 4 4 3 2 6 5 1 4
20 21 22 24 26 25 26 28 29 30 32 32 33 32 27 18 4 4 7 4 2 1 1 5 4 4 3 6 4 5 7 4 4 5 6 6 2 4 4 3 4 3 5 4 5 4 2
19 20 21 25 25 26 27 29 29 31 32 32 32 31 27 18 2 5 3 3 2 0 4 4 2 2 2 3 3 1 4 3 1 6 6 6 1 5 4 5 7 4 5 3 1 2 4
19 18 20 25 25 27 30 31 31 32 33 33 33 30 24 13 6 2 3 4 2 1 4 2 2 2 1 4 3 2 0 2 5 5 5 6 7 5 5 7 8 6 3 4 2 2 2
17 16 20 24 25 28 30 31 32 33 34 34 33 29 22 9 6 3 5 2 1 5 6 2 3 2 2 2 2 2 1 3 1 2 2 6 1 6 7 2 4 6 5 5 3 2 2
14 17 20 24 26 29 30 30 31 33 34 35 32 28 17 8 3 5 4 2 4 4 3 2 3 3 3 5 3 5 5 4 6 2 4 2 4 2 3 4 1 2 5 3 3 0 6
16 18 20 24 24 26 30 31 30 32 34 36 33 25 11 3 3 4 0 4 4 4 6 2 1 2 5 5 3 3 2 4 5 2 2 4 6 8 5 6 7 6 7 5 7 4 3
17 19 21 22 24 26 28 29 31 32 31 34 31 17 4 2 3 4 4 2 7 7 3 1 1 3 3 1 3 3 6 6 7 10 9 6 6 1 2 2 2 5 5 3 1 2 2
20 21 22 24 25 27 28 30 32 32 31 28 24 11 4 2 4 1 3 5 5 4 1 1 5 6 6 4 3 4 5 4 4 10 1 3 6 2 3 3 2 4 3 3 1 4 6
20 21 22 24 25 27 29 30 32 33 31 22 6 4 1 5 2 4 3 7 5 5 2 5 4 5 6 4 6 5 5 4 6 4 4 5 4 3 5 8 10 2 3 2 3 4 6
20 21 23 24 26 28 30 31 32 33 33 16 6 3 3 6 2 1 2 3 4 4 1 5 3 7 7 7 7 8 10 10 8 8 8 7 5 8 13 2 2 5 9 9 6 8 5
21 21 22 24 26 27 29 31 33 34 29 11 4 4 4 2 2 3 4 4 3 4 5 2 3 5 1 4 5 8 7 7 8 9 8 7 4 5 6 2 3 5 5 5 1 2 23
21 22 23 25 26 28 30 33 35 36 28 3 3 4 4 3 2 2 4 5 4 2 4 3 3 2 5 9 7 7 4 4 5 6 4 7 6 8 17 7 5 5 7 8 14 10 14
20 21 22 23 25 27 29 32 35 38 22 5 3 3 4 4 5 11 8 5 11 8 9 6 2 13 9 5 4 6 5 5 3 3 3 3 9 6 15 17 11 19 21 21 20 20 18
19 20 21 23 24 25 26 28 30 35 26 8 3 4 5 4 8 8 5 2 7 7 8 7 8 19 16 7 12 7 9 5 6 2 14 6 10 16 22 27 23 25 26 25 24 26 23
20 21 21 22 23 24 24 24 25 26 27 10 7 5 2 5 5 4 4 6 9 9 5 7 12 13 12 12 14 18 17 16 18 17 15 5 4 6 20 17 14 15 22 25 22 21 16
21 21 21 21 22 22 22 22 21 20 19 13 5 4 3 3 2 3 9 11 7 9 9 11 11 8 5 15 19 15 17 19 18 21 18 17 15 5 11 14 19 1 11 8 4 16 19
21 22 22 21 21 21 21 21 19 18 16 13 11 5 3 4 5 9 6 4 11 7 5 8 3 10 12 11 4 7 4 8 8 5 8 11 16 12 11 12 12 1 12 10 12 7 20
23 22 21 21 21 20 20 18 17 15 14 13 9 7 3 4 1 5 8 4 6 4 5 4 9 12 5 2 3 3 3 5 6 9 10 9 2 4 7 12 6 5 20 19 12 2 20
27 25 24 20 20 21 20 17 16 16 15 12 9 5 2 3 4 2 2 7 4 2 4 6 6 7 2 3 2 1 3 6 5 7 9 8 5 5 5 3 2 16 23 14 2 6 15
27 27 26 27 23 18 17 17 14 14 16 16 13 9 6 3 6 7 5 4 3 4 6 6 7 2 3 4 2 3 1 2 3 3 3 5 5 4 5 4 2 23 6 8 8 6 9
27 29 28 26 24 24 19 15 14 14 14 11 8 14 11 6 6 19 21 26 22 25 7 4 3 4 3 1 2 1 3 3 2 2 9 4 4 5 4 3 4 7 5 6 8 6 8
Wind_Direction
21 21 21 20 21 23 29 27 27 26 21 13 4 352 338 324 304 285 271 264 255 276 282 297 322 329 341 6 251 197 245 231 192 173 172 148 151 150 199 193 156 198 244 208 236 182 230
16 16 18 17 17 20 23 24 24 25 23 20 11 359 343 320 300 284 271 261 262 280 288 301 312 316 119 253 185 193 240 186 170 176 156 151 195 190 168 199 178 198 252 258 265 232 236
10 12 13 13 13 13 19 20 19 19 19 17 16 6 351 332 302 277 265 261 268 271 277 298 306 303 187 240 193 192 193 172 109 161 141 179 144 138 141 204 182 121 310 302 217 205 239
8 9 10 11 11 10 16 16 16 15 14 13 11 9 357 341 327 303 276 265 264 271 264 270 306 269 246 217 204 209 176 167 136 103 122 135 129 113 102 138 19 14 58 333 182 160 183
7 8 10 12 10 16 15 15 14 13 11 10 9 6 1 348 326 330 304 274 268 274 254 259 271 190 268 201 207 197 183 166 148 124 93 112 80 99 56 96 353 359 240 223 311 201 135
13 13 13 12 10 15 14 13 12 11 8 7 7 5 2 357 350 338 333 302 265 226 208 190 226 17 250 224 167 169 163 156 137 115 75 62 53 87 60 121 232 211 230 245 243 209 205
15 15 14 11 10 11 11 10 9 8 5 5 5 3 0 356 338 358 354 87 23 350 204 194 201 217 159 143 167 180 163 130 112 103 187 24 120 219 214 201 195 175 204 239 243 222 236
17 14 13 11 9 9 9 8 7 5 4 3 2 1 358 355 345 2 23 77 112 181 304 232 246 281 240 183 190 207 169 150 153 199 130 38 236 220 136 156 171 183 226 257 275 222 189
13 12 11 11 6 8 7 6 6 4 2 0 360 359 356 353 352 25 59 85 66 51 240 290 199 195 208 154 224 218 152 155 173 176 190 183 214 119 148 157 168 218 198 226 233 325 223
12 11 12 7 5 8 7 5 2 360 357 356 356 356 355 354 66 6 57 14 8 79 33 262 233 251 105 136 263 144 183 142 184 205 172 232 231 178 183 225 157 253 208 162 187 54 251
11 13 12 5 8 9 6 2 359 358 355 351 351 351 352 356 333 35 337 333 341 76 347 196 189 147 116 168 136 220 192 81 207 193 143 247 171 179 189 217 165 224 134 143 102 150 12
5 12 5 2 8 5 2 358 358 356 352 349 347 345 343 341 327 349 333 325 115 44 254 227 138 171 155 198 221 97 125 54 56 176 244 245 267 181 207 134 168 140 89 57 59 103 262
3 359 356 355 355 357 358 356 355 353 352 348 344 341 334 327 324 332 338 49 30 161 326 202 218 175 212 207 219 180 173 186 192 181 245 262 218 206 166 111 50 136 92 308 303 226 234
358 352 354 352 357 358 357 353 351 350 349 346 342 337 327 311 307 327 358 54 206 240 249 318 94 156 215 161 233 165 165 255 231 134 126 213 301 180 182 200 183 174 170 179 231 214 251
19 20 18 12 9 7 2 353 349 347 347 346 341 334 329 338 337 326 80 148 211 212 250 270 278 214 267 265 197 163 214 217 223 178 186 181 264 137 174 135 141 177 186 194 125 98 353
32 30 24 19 13 9 5 1 357 349 346 347 336 323 307 344 336 47 83 236 241 217 303 99 209 183 215 222 184 186 213 200 236 193 102 227 293 193 153 122 42 174 166 95 3 241 241
32 31 25 18 15 11 7 3 1 355 347 349 349 349 5 338 330 59 205 230 272 269 234 207 230 265 229 227 207 207 245 254 208 169 184 161 172 238 128 200 180 156 209 187 185 166 234
28 25 24 21 16 11 8 6 3 1 356 358 349 327 324 332 18 80 213 219 313 299 88 271 222 217 213 210 236 224 224 216 172 159 177 210 177 241 225 229 210 193 193 174 202 234 232
29 25 23 19 14 11 8 5 3 0 0 319 304 271 328 334 213 238 283 287 258 266 246 239 261 204 176 236 265 212 224 240 181 173 188 183 224 283 308 18 345 221 201 207 280 35 247
27 23 21 18 13 10 7 5 3 360 1 330 309 315 315 35 32 350 342 301 288 320 275 271 267 250 221 236 228 275 248 270 198 215 220 146 206 199 241 230 125 191 211 211 218 242 262
20 17 15 11 8 7 6 5 3 2 11 10 335 352 8 342 352 337 339 313 311 330 345 307 255 40 1 293 289 252 261 307 226 275 260 182 258 270 279 276 281 271 263 248 231 245 249
14 10 8 6 4 4 4 5 6 5 10 59 21 352 347 295 329 342 340 27 350 357 344 327 2 336 327 301 305 299 334 341 292 263 264 204 262 263 263 265 264 262 252 252 250 253 254
11 8 5 3 1 360 1 3 6 10 23 29 8 357 319 302 334 334 353 15 339 332 254 289 296 300 296 294 299 286 269 260 253 267 282 249 238 237 254 265 264 254 245 245 246 249 247
6 3 1 359 358 359 359 360 3 7 14 21 350 318 341 290 316 322 327 309 312 312 269 284 299 284 328 321 296 266 251 254 248 254 234 253 253 250 264 261 247 347 23 34 43 41 5
3 359 355 354 354 354 355 353 355 358 2 5 2 355 325 294 296 298 354 324 317 291 282 282 311 327 314 308 293 307 269 249 235 262 349 333 267 256 249 244 284 50 25 6 357 45 6
358 355 357 356 348 346 346 350 348 351 351 351 345 345 320 327 266 340 295 270 311 314 325 285 318 308 302 299 309 328 306 312 310 333 51 354 74 358 344 311 286 338 326 316 292 91 1
350 350 345 328 339 345 342 336 338 331 333 326 302 322 273 259 271 194 292 307 278 311 277 301 337 320 340 321 302 261 279 339 357 9 339 324 356 354 336 347 155 341 323 306 348 328 352
352 350 344 344 333 318 334 341 327 328 321 325 312 284 267 239 265 229 256 216 239 272 284 331 321 358 318 16 48 315 3 307 316 258 313 25 324 360 328 296 298 356 358 55 319 10 351
351 349 343 339 330 335 312 308 319 323 319 308 293 313 295 234 255 274 264 262 254 256 247 222 250 357 271 348 10 26 324 346 228 291 16 50 340 344 36 47 22 355 28 356 356 10 3